Regional Weather Roundup
Issued by NWS Green Bay, WI

Home | Current Version | Previous Version | Text Only | Print | Product List | Glossary On
Versions: 1 2 3 4 5 6 7 8 9 10 11 12 13 14 15 16 17 18 19 20 21 22 23 24 25 26 27 28 29 30 31 32 33 34 35 36 37 38 39 40 41 42 43 44 45 46 47 48 49 50
000
ASUS43 KGRB 020411
RWRGRB

NORTH-CENTRAL AND NORTHEAST WISCONSIN REGIONAL WEATHER ROUNDUP
NATIONAL WEATHER SERVICE GREEN BAY WI
1100 PM CDT WED JUL 01 2015

WIZ005-009-010>012-018-019-020500-
NORTH CENTRAL WISCONSIN

CITY           SKY/WX    TMP DP  RH WIND       PRES   REMARKS
IRONWOOD       CLEAR     48  46  93 CALM      30.02R
MANITOWISH WTR CLEAR     47  47 100 CALM      30.05S
ARBOR VITAE    CLEAR     52  48  87 CALM      30.05S
EAGLE RIVER    CLEAR     48  46  93 CALM      30.05S
LAND O LAKES   CLEAR     47  47  97 CALM      30.06S
RHINELANDER    CLEAR     51  47  86 CALM      30.06R
PHILLIPS       CLEAR     52  47  84 CALM      30.04S
ANTIGO         CLEAR     52  48  88 E5        30.05S
TOMAHAWK       NOT AVBL
MERRILL        CLEAR     50  48  92 CALM      30.04F
$$

WIZ013-073-020500-
NORTHEAST WISCONSIN

CITY           SKY/WX    TMP DP  RH WIND       PRES   REMARKS
IRON MOUNTAIN  CLEAR     50  44  80 CALM      30.03S
MARINETTE      CLEAR     52  43  71 CALM      30.03S
OCONTO         CLEAR     50  50 100 CALM      30.04S
$$

WIZ017-030-035>037-045-020500-
CENTRAL WISCONSIN

CITY           SKY/WX    TMP DP  RH WIND       PRES   REMARKS
MEDFORD        CLEAR     53  50  87 CALM      30.03S
WAUSAU         CLEAR     60  46  59 CALM      30.01S
MOSINEE        CLEAR     55  46  71 NE3       30.03F
MARSHFIELD     CLEAR     57  49  74 CALM      30.02S
WISC RAPIDS    CLEAR     54  50  86 CALM      30.02S
STEVENS POINT  CLEAR     53  48  85 CALM      30.02F
WAUPACA        CLEAR     56  55  94 CALM      30.03R
SHAWANO        CLEAR     57  48  72 E3        30.04S
CLINTONVILLE   CLEAR     55  48  76 CALM      30.03R
$$

WIZ038-039-048-051-020500-
FOX VALLEY

CITY           SKY/WX    TMP DP  RH WIND       PRES   REMARKS
NWS GREEN BAY  CLEAR     55  48  77 CALM      30.04R
APPLETON       CLEAR     57  48  72 E5        30.04R
OSHKOSH        PTCLDY    59  53  80 SE6       30.02S
FOND DU LAC    CLEAR     56  52  86 SE9       30.03S
$$

WIZ022-050-052-020500-
EAST CENTRAL WISCONSIN

CITY           SKY/WX    TMP DP  RH WIND       PRES   REMARKS
STURGEON BAY   CLEAR     50  45  81 CALM      30.06S
MANITOWOC      CLEAR     50  50 100 MISG      30.05R FOG
SHEBOYGAN      CLEAR     50  48  93 CALM      30.04S
$$

LMZ563-521-522-541>543-020500-
LAKESHORE

STATION/POSITION TIME  TEMP    WIND        PRES    VSBY  WAVE
                       AIR SEA DIR/SP/G                  HT/PER
                 (UTC) (F)     (DEG/KT/KT) (MB)    (MI)  (FT/S)
SHEBOYGAN LKSHOR 0400   57     300/  2/  3 1017.5S
KEWAUNEE LKSHORE 0300   52     310/  1/  3 1016.5R
ALGOMA MARINA    0340             CALM       N/A
NORTHPORT PIER   0300   58      40/  4/  6 1016.6R
N MID LAKE BUOY  0350   51 42   40/  4/  4 1017.2R         1/ 3
S GREEN BAY BUOY 0300   61 68  120/ 10/ 14 1018.2
SISTER BAY LKSHO 0314   56     120/  1/  4   N/A
CHAMBERS ISLAND  0300   61      40/  8/ 11 1016.9R
MENOMINEE LKSHOR 0300   62      60/ 10/ 12 1017.4R
$$


USA.gov is the U.S. government's official web portal to all federal, state and local government web resources and services.